Time,TemperatureF,DewpointF,PressureIn,WindDirection,WindDirectionDegrees,WindSpeedMPH,WindSpeedGustMPH,Humidity,HourlyPrecipIn,Conditions,Clouds,dailyrainin,SoftwareType,DateUTC
2013-03-09 00:03:00,39.2,29.5,30.10,ESE,113,0.7,1.3,68,0.00,,,0.00,WUHU216HW,2013-03-09 08:03:00,
2013-03-09 00:08:00,39.1,29.7,30.10,NNW,338,0.9,1.3,69,0.00,,,0.00,WUHU216HW,2013-03-09 08:08:00,
2013-03-09 00:14:00,38.7,29.0,30.11,SE,135,0.2,1.8,68,0.00,,,0.00,WUHU216HW,2013-03-09 08:14:00,
2013-03-09 00:19:00,38.7,29.0,30.11,ENE,68,0.0,1.3,68,0.00,,,0.00,WUHU216HW,2013-03-09 08:19:00,
2013-03-09 00:24:00,38.5,28.8,30.11,North,0,0.2,0.9,68,0.00,,,0.00,WUHU216HW,2013-03-09 08:24:00,
2013-03-09 00:29:00,38.3,28.7,30.11,SE,135,0.2,2.0,68,0.00,,,0.00,WUHU216HW,2013-03-09 08:29:00,
2013-03-09 00:34:00,38.2,28.5,30.11,NNE,23,0.4,2.2,68,0.00,,,0.00,WUHU216HW,2013-03-09 08:34:00,
2013-03-09 00:39:00,38.2,29.3,30.11,North,0,0.4,2.2,70,0.00,,,0.00,WUHU216HW,2013-03-09 08:39:00,
2013-03-09 00:44:00,37.8,29.0,30.12,NNW,338,0.0,0.7,70,0.00,,,0.00,WUHU216HW,2013-03-09 08:44:00,
2013-03-09 00:49:00,37.8,29.0,30.12,ENE,68,0.4,2.5,70,0.00,,,0.00,WUHU216HW,2013-03-09 08:49:00,
2013-03-09 00:54:00,37.8,29.0,30.12,SE,135,1.6,2.5,70,0.00,,,0.00,WUHU216HW,2013-03-09 08:54:00,
2013-03-09 00:59:00,37.8,29.0,30.12,ENE,68,0.0,1.6,70,0.00,,,0.00,WUHU216HW,2013-03-09 08:59:00,
2013-03-09 01:04:00,37.8,29.0,30.12,NE,45,1.3,1.3,70,0.00,,,0.00,WUHU216HW,2013-03-09 09:04:00,
2013-03-09 01:09:00,37.8,29.0,30.12,ENE,68,1.1,1.3,70,0.00,,,0.00,WUHU216HW,2013-03-09 09:09:00,
2013-03-09 01:15:00,37.6,28.8,30.12,South,180,0.0,1.1,70,0.00,,,0.00,WUHU216HW,2013-03-09 09:15:00,
2013-03-09 01:20:00,37.4,28.6,30.13,ESE,113,0.0,1.1,70,0.00,,,0.00,WUHU216HW,2013-03-09 09:20:00,
2013-03-09 01:25:00,37.1,28.6,30.13,North,0,0.0,0.7,71,0.00,,,0.00,WUHU216HW,2013-03-09 09:25:00,
2013-03-09 01:30:00,36.9,28.5,30.13,NE,45,0.4,0.7,71,0.00,,,0.00,WUHU216HW,2013-03-09 09:30:00,
2013-03-09 01:35:00,36.7,28.3,30.12,SSE,158,1.3,1.6,71,0.00,,,0.00,WUHU216HW,2013-03-09 09:35:00,
2013-03-09 01:40:00,36.4,27.9,30.13,ESE,113,0.7,1.8,71,0.00,,,0.00,WUHU216HW,2013-03-09 09:40:00,
2013-03-09 01:45:00,36.4,27.9,30.13,NNW,338,0.4,1.8,71,0.00,,,0.00,WUHU216HW,2013-03-09 09:45:00,
2013-03-09 01:50:00,36.4,28.2,30.13,North,0,0.7,0.7,72,0.00,,,0.00,WUHU216HW,2013-03-09 09:50:00,
2013-03-09 01:55:00,36.5,28.4,30.13,East,90,0.4,0.7,72,0.00,,,0.00,WUHU216HW,2013-03-09 09:55:00,
2013-03-09 02:00:00,36.4,27.9,30.13,NW,315,0.0,0.7,71,0.00,,,0.00,WUHU216HW,2013-03-09 10:00:00,
2013-03-09 02:05:00,36.2,28.0,30.14,NNW,338,0.0,0.7,72,0.00,,,0.00,WUHU216HW,2013-03-09 10:05:00,
2013-03-09 02:10:00,36.2,28.4,30.14,ESE,113,0.4,0.4,73,0.00,,,0.00,WUHU216HW,2013-03-09 10:10:00,
2013-03-09 02:15:00,36.0,27.8,30.14,East,90,0.4,0.9,72,0.00,,,0.00,WUHU216HW,2013-03-09 10:15:00,
2013-03-09 02:20:00,35.8,27.6,30.14,North,0,0.2,1.1,72,0.00,,,0.00,WUHU216HW,2013-03-09 10:20:00,
2013-03-09 02:25:00,35.8,28.0,30.14,NNE,23,0.2,1.1,73,0.00,,,0.00,WUHU216HW,2013-03-09 10:25:00,
2013-03-09 02:30:00,35.6,27.5,30.14,SE,135,0.0,0.4,72,0.00,,,0.00,WUHU216HW,2013-03-09 10:30:00,
2013-03-09 02:35:00,35.6,27.5,30.14,ENE,68,0.4,0.9,72,0.00,,,0.00,WUHU216HW,2013-03-09 10:35:00,
2013-03-09 02:41:00,35.6,27.8,30.14,North,0,1.1,1.1,73,0.00,,,0.00,WUHU216HW,2013-03-09 10:41:00,
2013-03-09 02:46:00,35.6,27.8,30.14,North,0,0.7,1.1,73,0.00,,,0.00,WUHU216HW,2013-03-09 10:46:00,
2013-03-09 02:51:00,35.5,27.6,30.14,NNE,23,0.0,0.7,73,0.00,,,0.00,WUHU216HW,2013-03-09 10:51:00,
2013-03-09 02:56:00,35.3,27.5,30.14,NNW,338,0.4,0.4,73,0.00,,,0.00,WUHU216HW,2013-03-09 10:56:00,
2013-03-09 03:01:00,35.1,27.3,30.14,WNW,293,0.0,0.4,73,0.00,,,0.00,WUHU216HW,2013-03-09 11:01:00,
2013-03-09 03:06:00,34.9,27.1,30.14,WNW,293,0.0,0.0,73,0.00,,,0.00,WUHU216HW,2013-03-09 11:06:00,
2013-03-09 03:11:00,35.1,27.3,30.15,NNW,338,0.0,0.0,73,0.00,,,0.00,WUHU216HW,2013-03-09 11:11:00,
2013-03-09 03:16:00,35.1,27.3,30.15,NE,45,0.0,0.2,73,0.00,,,0.00,WUHU216HW,2013-03-09 11:16:00,
2013-03-09 03:21:00,34.9,27.1,30.15,East,90,0.0,0.2,73,0.00,,,0.00,WUHU216HW,2013-03-09 11:21:00,
2013-03-09 03:26:00,34.7,26.9,30.15,East,90,1.1,1.1,73,0.00,,,0.00,WUHU216HW,2013-03-09 11:26:00,
2013-03-09 03:31:00,34.6,26.7,30.16,SSW,203,0.0,1.1,73,0.00,,,0.00,WUHU216HW,2013-03-09 11:31:00,
2013-03-09 03:36:00,34.4,26.6,30.16,North,0,0.0,1.1,73,0.00,,,0.00,WUHU216HW,2013-03-09 11:36:00,
2013-03-09 03:41:00,34.4,26.6,30.16,East,90,0.0,0.0,73,0.00,,,0.00,WUHU216HW,2013-03-09 11:41:00,
2013-03-09 03:46:00,34.2,26.4,30.16,East,90,1.1,1.1,73,0.00,,,0.00,WUHU216HW,2013-03-09 11:46:00,
2013-03-09 03:52:00,34.2,26.4,30.16,North,0,1.1,1.1,73,0.00,,,0.00,WUHU216HW,2013-03-09 11:52:00,
2013-03-09 03:57:00,34.2,26.6,30.17,NNW,338,0.0,1.1,74,0.00,,,0.00,WUHU216HW,2013-03-09 11:57:00,
2013-03-09 04:02:00,34.0,26.5,30.17,NNW,338,0.0,0.4,74,0.00,,,0.00,WUHU216HW,2013-03-09 12:02:00,
2013-03-09 04:07:00,33.8,26.3,30.17,SE,135,0.9,0.9,74,0.00,,,0.00,WUHU216HW,2013-03-09 12:07:00,
2013-03-09 04:12:00,33.5,26.0,30.17,ENE,68,0.0,1.1,74,0.00,,,0.00,WUHU216HW,2013-03-09 12:12:00,
2013-03-09 04:17:00,33.5,26.0,30.18,SW,225,0.0,1.1,74,0.00,,,0.00,WUHU216HW,2013-03-09 12:17:00,
2013-03-09 04:22:00,33.5,26.0,30.18,NNE,23,1.3,1.3,74,0.00,,,0.00,WUHU216HW,2013-03-09 12:22:00,
2013-03-09 04:27:00,33.5,26.3,30.18,NE,45,0.7,1.8,75,0.00,,,0.00,WUHU216HW,2013-03-09 12:27:00,
2013-03-09 04:32:00,33.5,26.6,30.18,North,0,0.9,2.2,76,0.00,,,0.00,WUHU216HW,2013-03-09 12:32:00,
2013-03-09 04:38:00,33.5,26.6,30.18,NNW,338,0.4,2.2,76,0.00,,,0.00,WUHU216HW,2013-03-09 12:38:00,
2013-03-09 04:43:00,33.5,26.6,30.18,NNE,23,0.7,1.1,76,0.00,,,0.00,WUHU216HW,2013-03-09 12:43:00,
2013-03-09 04:48:00,33.7,26.8,30.18,East,90,0.4,1.1,76,0.00,,,0.00,WUHU216HW,2013-03-09 12:48:00,
2013-03-09 04:53:00,33.7,26.8,30.19,East,90,1.1,1.1,76,0.00,,,0.00,WUHU216HW,2013-03-09 12:53:00,
2013-03-09 04:58:00,33.7,26.8,30.19,NNE,23,0.0,1.1,76,0.00,,,0.00,WUHU216HW,2013-03-09 12:58:00,
2013-03-09 05:03:00,33.7,26.8,30.19,North,0,0.0,0.9,76,0.00,,,0.00,WUHU216HW,2013-03-09 13:03:00,
2013-03-09 05:08:00,33.5,26.6,30.20,ESE,113,1.1,1.8,76,0.00,,,0.00,WUHU216HW,2013-03-09 13:08:00,
2013-03-09 05:13:00,32.9,26.2,30.19,ESE,113,1.3,2.7,76,0.00,,,0.00,WUHU216HW,2013-03-09 13:13:00,
2013-03-09 05:18:00,32.6,25.8,30.20,SE,135,0.9,2.7,76,0.00,,,0.00,WUHU216HW,2013-03-09 13:18:00,
2013-03-09 05:23:00,32.4,26.0,30.20,SE,135,2.7,2.7,77,0.00,,,0.00,WUHU216HW,2013-03-09 13:23:00,
2013-03-09 05:28:00,32.4,26.0,30.20,SE,135,0.7,2.7,77,0.00,,,0.00,WUHU216HW,2013-03-09 13:28:00,
2013-03-09 05:33:00,32.6,26.2,30.20,SE,135,1.6,2.5,77,0.00,,,0.00,WUHU216HW,2013-03-09 13:33:00,
2013-03-09 05:38:00,32.6,26.2,30.20,SE,135,2.5,3.1,77,0.00,,,0.00,WUHU216HW,2013-03-09 13:38:00,
2013-03-09 05:43:00,32.4,26.3,30.20,ENE,68,1.1,3.1,78,0.00,,,0.00,WUHU216HW,2013-03-09 13:43:00,
2013-03-09 05:48:00,32.4,26.3,30.20,NNE,23,0.0,2.7,78,0.00,,,0.00,WUHU216HW,2013-03-09 13:48:00,
2013-03-09 05:54:00,32.4,26.0,30.20,NNE,23,0.0,1.1,77,0.00,,,0.00,WUHU216HW,2013-03-09 13:54:00,
2013-03-09 05:59:00,32.8,26.3,30.20,NNE,23,0.0,0.7,77,0.00,,,0.00,WUHU216HW,2013-03-09 13:59:00,
2013-03-09 06:04:00,32.8,26.3,30.20,NNE,23,0.9,1.1,77,0.00,,,0.00,WUHU216HW,2013-03-09 14:04:00,
2013-03-09 06:09:00,32.8,26.3,30.20,NNW,338,0.7,1.3,77,0.00,,,0.00,WUHU216HW,2013-03-09 14:09:00,
2013-03-09 06:14:00,32.8,26.6,30.20,NNE,23,0.4,1.3,78,0.00,,,0.00,WUHU216HW,2013-03-09 14:14:00,
2013-03-09 06:19:00,32.8,26.6,30.21,NNE,23,0.0,1.1,78,0.00,,,0.00,WUHU216HW,2013-03-09 14:19:00,
2013-03-09 06:24:00,32.8,26.6,30.21,North,0,0.0,0.4,78,0.00,,,0.00,WUHU216HW,2013-03-09 14:24:00,
2013-03-09 06:29:00,32.6,26.5,30.21,North,0,0.7,1.1,78,0.00,,,0.00,WUHU216HW,2013-03-09 14:29:00,
2013-03-09 06:34:00,32.8,26.6,30.22,NE,45,0.0,1.1,78,0.00,,,0.00,WUHU216HW,2013-03-09 14:34:00,
2013-03-09 06:39:00,32.4,26.3,30.22,SE,135,0.0,0.4,78,0.00,,,0.00,WUHU216HW,2013-03-09 14:39:00,
2013-03-09 06:44:00,32.4,26.3,30.22,North,0,1.1,1.1,78,0.00,,,0.00,WUHU216HW,2013-03-09 14:44:00,
2013-03-09 06:49:00,32.4,26.3,30.22,NNE,23,1.8,1.8,78,0.00,,,0.00,WUHU216HW,2013-03-09 14:49:00,
2013-03-09 06:54:00,32.4,26.3,30.23,North,0,0.4,2.5,78,0.00,,,0.00,WUHU216HW,2013-03-09 14:54:00,
2013-03-09 07:00:00,32.6,26.5,30.23,SSE,158,0.0,2.5,78,0.00,,,0.00,WUHU216HW,2013-03-09 15:00:00,
2013-03-09 07:05:00,32.6,26.5,30.23,ESE,113,0.0,0.4,78,0.00,,,0.00,WUHU216HW,2013-03-09 15:05:00,
2013-03-09 07:10:00,32.6,26.5,30.23,East,90,0.4,0.4,78,0.00,,,0.00,WUHU216HW,2013-03-09 15:10:00,
2013-03-09 07:15:00,32.6,26.5,30.24,NNW,338,0.0,0.4,78,0.00,,,0.00,WUHU216HW,2013-03-09 15:15:00,
2013-03-09 07:20:00,32.6,26.8,30.24,North,0,0.0,0.4,79,0.00,,,0.00,WUHU216HW,2013-03-09 15:20:00,
2013-03-09 07:25:00,32.8,27.0,30.24,ENE,68,0.4,0.9,79,0.00,,,0.00,WUHU216HW,2013-03-09 15:25:00,
2013-03-09 07:30:00,32.8,27.0,30.25,NNW,338,0.0,0.9,79,0.00,,,0.00,WUHU216HW,2013-03-09 15:30:00,
2013-03-09 07:35:00,32.9,27.1,30.25,NW,315,0.0,1.1,79,0.00,,,0.00,WUHU216HW,2013-03-09 15:35:00,
2013-03-09 07:40:00,33.3,27.5,30.25,South,180,1.1,1.1,79,0.00,,,0.00,WUHU216HW,2013-03-09 15:40:00,
2013-03-09 07:45:00,33.3,27.5,30.25,SSE,158,0.4,1.3,79,0.00,,,0.00,WUHU216HW,2013-03-09 15:45:00,
2013-03-09 07:50:00,33.3,27.5,30.25,South,180,1.3,1.3,79,0.00,,,0.00,WUHU216HW,2013-03-09 15:50:00,
2013-03-09 07:55:00,33.3,27.8,30.25,SSW,203,1.1,1.3,80,0.00,,,0.00,WUHU216HW,2013-03-09 15:55:00,
2013-03-09 08:00:00,33.5,27.9,30.26,South,180,0.9,1.3,80,0.00,,,0.00,WUHU216HW,2013-03-09 16:00:00,
2013-03-09 08:05:00,33.7,28.1,30.26,South,180,0.0,1.3,80,0.00,,,0.00,WUHU216HW,2013-03-09 16:05:00,
2013-03-09 08:10:00,33.8,28.3,30.26,South,180,0.7,0.7,80,0.00,,,0.00,WUHU216HW,2013-03-09 16:10:00,
2013-03-09 08:15:00,34.0,28.4,30.26,SSW,203,1.1,1.1,80,0.00,,,0.00,WUHU216HW,2013-03-09 16:15:00,
2013-03-09 08:20:00,34.2,28.6,30.26,ENE,68,0.0,1.1,80,0.00,,,0.00,WUHU216HW,2013-03-09 16:20:00,
2013-03-09 08:25:00,34.6,29.0,30.27,SSW,203,0.2,1.1,80,0.00,,,0.00,WUHU216HW,2013-03-09 16:25:00,
2013-03-09 08:30:00,34.7,29.2,30.27,SSW,203,0.0,0.9,80,0.00,,,0.00,WUHU216HW,2013-03-09 16:30:00,
2013-03-09 08:35:00,34.9,29.3,30.27,SSE,158,0.0,1.1,80,0.00,,,0.00,WUHU216HW,2013-03-09 16:35:00,
2013-03-09 08:41:00,35.3,30.0,30.27,SW,225,0.4,1.1,81,0.00,,,0.00,WUHU216HW,2013-03-09 16:41:00,
2013-03-09 08:46:00,35.6,30.1,30.27,SE,135,0.0,1.1,80,0.00,,,0.00,WUHU216HW,2013-03-09 16:46:00,
2013-03-09 08:51:00,36.0,30.4,30.27,WSW,248,0.0,1.1,80,0.00,,,0.00,WUHU216HW,2013-03-09 16:51:00,
2013-03-09 08:56:00,36.4,31.1,30.27,WSW,248,0.7,0.7,81,0.00,,,0.00,WUHU216HW,2013-03-09 16:56:00,
2013-03-09 09:01:00,36.7,31.4,30.27,West,270,0.7,1.1,81,0.00,,,0.00,WUHU216HW,2013-03-09 17:01:00,
2013-03-09 09:06:00,37.1,31.8,30.27,WSW,248,0.4,1.1,81,0.00,,,0.00,WUHU216HW,2013-03-09 17:06:00,
2013-03-09 09:11:00,37.4,31.9,30.27,WSW,248,0.0,0.9,80,0.00,,,0.00,WUHU216HW,2013-03-09 17:11:00,
2013-03-09 09:16:00,37.8,32.2,30.28,WSW,248,0.0,0.9,80,0.00,,,0.00,WUHU216HW,2013-03-09 17:16:00,
2013-03-09 09:21:00,38.2,32.2,30.28,SW,225,0.2,0.9,79,0.00,,,0.00,WUHU216HW,2013-03-09 17:21:00,
2013-03-09 09:26:00,38.7,32.8,30.28,WSW,248,0.7,1.1,79,0.00,,,0.00,WUHU216HW,2013-03-09 17:26:00,
2013-03-09 09:31:00,39.1,33.1,30.28,WSW,248,0.7,1.8,79,0.00,,,0.00,WUHU216HW,2013-03-09 17:31:00,
2013-03-09 09:36:00,39.6,33.7,30.28,WSW,248,0.4,1.8,79,0.00,,,0.00,WUHU216HW,2013-03-09 17:36:00,
2013-03-09 09:41:00,40.0,33.9,30.28,SSW,203,2.2,2.2,79,0.00,,,0.00,WUHU216HW,2013-03-09 17:41:00,
2013-03-09 09:46:00,40.7,34.3,30.27,SW,225,2.0,2.2,78,0.00,,,0.00,WUHU216HW,2013-03-09 17:46:00,
2013-03-09 09:51:00,41.0,34.3,30.28,WSW,248,1.8,2.0,77,0.00,,,0.00,WUHU216HW,2013-03-09 17:51:00,
2013-03-09 09:56:00,41.2,34.5,30.28,WSW,248,1.8,2.0,77,0.00,,,0.00,WUHU216HW,2013-03-09 17:56:00,
2013-03-09 10:02:00,41.6,34.8,30.28,WNW,293,1.8,2.0,77,0.00,,,0.00,WUHU216HW,2013-03-09 18:02:00,
2013-03-09 10:07:00,42.1,35.1,30.28,WSW,248,1.6,2.0,76,0.00,,,0.00,WUHU216HW,2013-03-09 18:07:00,
2013-03-09 10:12:00,42.7,35.3,30.29,SW,225,0.7,1.8,75,0.00,,,0.00,WUHU216HW,2013-03-09 18:12:00,
2013-03-09 10:17:00,43.0,35.3,30.29,WNW,293,1.8,1.8,74,0.00,,,0.00,WUHU216HW,2013-03-09 18:17:00,
2013-03-09 10:22:00,43.2,35.2,30.29,West,270,1.1,2.0,73,0.00,,,0.00,WUHU216HW,2013-03-09 18:22:00,
2013-03-09 10:27:00,43.6,35.5,30.29,West,270,0.4,2.0,73,0.00,,,0.00,WUHU216HW,2013-03-09 18:27:00,
2013-03-09 10:32:00,44.1,35.6,30.29,NW,315,0.9,1.8,72,0.00,,,0.00,WUHU216HW,2013-03-09 18:32:00,
2013-03-09 10:37:00,44.6,35.5,30.30,NNW,338,0.2,1.3,70,0.00,,,0.00,WUHU216HW,2013-03-09 18:37:00,
2013-03-09 10:42:00,45.2,36.0,30.30,NNE,23,1.8,1.8,70,0.00,,,0.00,WUHU216HW,2013-03-09 18:42:00,
2013-03-09 10:47:00,45.7,35.7,30.30,SW,225,0.4,1.8,68,0.00,,,0.00,WUHU216HW,2013-03-09 18:47:00,
2013-03-09 10:52:00,46.3,36.7,30.30,NNW,338,0.4,1.3,69,0.00,,,0.00,WUHU216HW,2013-03-09 18:52:00,
2013-03-09 10:57:00,46.8,36.8,30.30,WSW,248,1.1,1.3,68,0.00,,,0.00,WUHU216HW,2013-03-09 18:57:00,
2013-03-09 11:02:00,47.3,36.9,30.30,West,270,0.9,1.6,67,0.00,,,0.00,WUHU216HW,2013-03-09 19:02:00,
2013-03-09 11:07:00,47.9,37.0,30.30,NW,315,1.6,1.6,66,0.00,,,0.00,WUHU216HW,2013-03-09 19:07:00,
2013-03-09 11:13:00,48.4,36.8,30.30,NW,315,1.3,1.6,64,0.00,,,0.00,WUHU216HW,2013-03-09 19:13:00,
2013-03-09 11:18:00,48.8,37.1,30.30,WSW,248,1.3,1.3,64,0.00,,,0.00,WUHU216HW,2013-03-09 19:18:00,
2013-03-09 11:23:00,49.3,37.6,30.30,West,270,1.6,2.9,64,0.00,,,0.00,WUHU216HW,2013-03-09 19:23:00,
2013-03-09 11:28:00,50.0,37.9,30.30,NW,315,1.1,2.5,63,0.00,,,0.00,WUHU216HW,2013-03-09 19:28:00,
2013-03-09 11:33:00,50.4,37.4,30.30,West,270,1.3,1.6,61,0.00,,,0.00,WUHU216HW,2013-03-09 19:33:00,
2013-03-09 11:38:00,50.8,36.9,30.30,WSW,248,1.3,1.8,59,0.00,,,0.00,WUHU216HW,2013-03-09 19:38:00,
2013-03-09 11:43:00,50.9,36.6,30.30,SW,225,1.1,1.8,58,0.00,,,0.00,WUHU216HW,2013-03-09 19:43:00,
2013-03-09 11:48:00,51.5,36.6,30.30,WNW,293,1.8,1.8,57,0.00,,,0.00,WUHU216HW,2013-03-09 19:48:00,
2013-03-09 11:53:00,51.8,37.0,30.29,NNW,338,1.6,2.0,57,0.00,,,0.00,WUHU216HW,2013-03-09 19:53:00,
2013-03-09 11:58:00,52.6,36.8,30.29,WNW,293,1.8,2.0,55,0.00,,,0.00,WUHU216HW,2013-03-09 19:58:00,
2013-03-09 12:03:00,52.9,36.2,30.30,West,270,1.3,2.0,53,0.00,,,0.00,WUHU216HW,2013-03-09 20:03:00,
2013-03-09 12:08:00,53.5,36.3,30.30,West,270,1.1,2.5,52,0.00,,,0.00,WUHU216HW,2013-03-09 20:08:00,
2013-03-09 12:13:00,54.0,37.2,30.29,NNW,338,2.5,2.5,53,0.00,,,0.00,WUHU216HW,2013-03-09 20:13:00,
2013-03-09 12:18:00,54.4,37.1,30.29,WSW,248,2.0,2.5,52,0.00,,,0.00,WUHU216HW,2013-03-09 20:18:00,
2013-03-09 12:23:00,54.4,36.1,30.29,WSW,248,2.0,2.5,50,0.00,,,0.00,WUHU216HW,2013-03-09 20:23:00,
2013-03-09 12:29:00,54.4,36.1,30.29,SSW,203,2.5,3.4,50,0.00,,,0.00,WUHU216HW,2013-03-09 20:29:00,
2013-03-09 12:34:00,54.5,36.7,30.29,WSW,248,2.5,3.4,51,0.00,,,0.00,WUHU216HW,2013-03-09 20:34:00,
2013-03-09 12:39:00,55.4,37.5,30.30,West,270,0.9,3.8,51,0.00,,,0.00,WUHU216HW,2013-03-09 20:39:00,
2013-03-09 12:44:00,56.2,37.8,30.29,WSW,248,1.8,3.8,50,0.00,,,0.00,WUHU216HW,2013-03-09 20:44:00,
2013-03-09 12:49:00,56.5,38.2,30.29,SSW,203,1.1,2.9,50,0.00,,,0.00,WUHU216HW,2013-03-09 20:49:00,
2013-03-09 12:54:00,56.9,38.0,30.29,WSW,248,2.0,3.4,49,0.00,,,0.00,WUHU216HW,2013-03-09 20:54:00,
2013-03-09 12:59:00,57.1,37.0,30.29,WSW,248,2.0,3.4,47,0.00,,,0.00,WUHU216HW,2013-03-09 20:59:00,
2013-03-09 13:04:00,57.2,37.2,30.29,WSW,248,2.2,2.5,47,0.00,,,0.00,WUHU216HW,2013-03-09 21:04:00,
2013-03-09 13:09:00,57.2,36.5,30.29,SW,225,2.5,2.5,46,0.00,,,0.00,WUHU216HW,2013-03-09 21:09:00,
2013-03-09 13:14:00,57.6,36.9,30.29,SW,225,2.9,2.9,46,0.00,,,0.00,WUHU216HW,2013-03-09 21:14:00,
2013-03-09 13:19:00,57.8,35.9,30.29,WSW,248,2.5,3.4,44,0.00,,,0.00,WUHU216HW,2013-03-09 21:19:00,
2013-03-09 13:24:00,57.4,36.2,30.29,SW,225,2.5,3.4,45,0.00,,,0.00,WUHU216HW,2013-03-09 21:24:00,
2013-03-09 13:29:00,57.8,36.5,30.29,WSW,248,1.8,3.4,45,0.00,,,0.00,WUHU216HW,2013-03-09 21:29:00,
2013-03-09 13:34:00,58.5,36.0,30.29,West,270,2.2,3.4,43,0.00,,,0.00,WUHU216HW,2013-03-09 21:34:00,
2013-03-09 13:40:00,58.7,36.2,30.29,SW,225,4.0,4.0,43,0.00,,,0.00,WUHU216HW,2013-03-09 21:40:00,
2013-03-09 13:45:00,58.9,36.9,30.29,SSW,203,3.6,4.9,44,0.00,,,0.00,WUHU216HW,2013-03-09 21:45:00,
2013-03-09 13:50:00,59.2,37.2,30.28,SSW,203,2.9,4.9,44,0.00,,,0.00,WUHU216HW,2013-03-09 21:50:00,
2013-03-09 13:55:00,59.9,36.1,30.28,SE,135,2.5,4.3,41,0.00,,,0.00,WUHU216HW,2013-03-09 21:55:00,
2013-03-09 14:00:00,60.1,36.9,30.28,SW,225,4.7,4.7,42,0.00,,,0.00,WUHU216HW,2013-03-09 22:00:00,
2013-03-09 14:05:00,60.1,36.3,30.28,WSW,248,2.5,4.7,41,0.00,,,0.00,WUHU216HW,2013-03-09 22:05:00,
2013-03-09 14:10:00,61.0,37.7,30.28,SW,225,4.5,4.5,42,0.00,,,0.00,WUHU216HW,2013-03-09 22:10:00,
2013-03-09 14:15:00,60.8,36.4,30.28,SW,225,3.4,4.9,40,0.00,,,0.00,WUHU216HW,2013-03-09 22:15:00,
2013-03-09 14:20:00,60.8,36.4,30.28,SSW,203,2.5,4.9,40,0.00,,,0.00,WUHU216HW,2013-03-09 22:20:00,
2013-03-09 14:25:00,61.4,36.1,30.28,SW,225,2.2,4.7,39,0.00,,,0.00,WUHU216HW,2013-03-09 22:25:00,
2013-03-09 14:30:00,61.6,36.3,30.27,WSW,248,2.2,5.4,39,0.00,,,0.00,WUHU216HW,2013-03-09 22:30:00,
2013-03-09 14:35:00,62.6,38.0,30.27,SSE,158,1.6,5.4,40,0.00,,,0.00,WUHU216HW,2013-03-09 22:35:00,
2013-03-09 14:40:00,63.5,36.6,30.28,SW,225,3.4,3.4,37,0.00,,,0.00,WUHU216HW,2013-03-09 22:40:00,
2013-03-09 14:46:00,63.0,36.9,30.28,WSW,248,2.2,3.8,38,0.00,,,0.00,WUHU216HW,2013-03-09 22:46:00,
2013-03-09 14:51:00,63.2,36.3,30.28,SW,225,2.7,3.8,37,0.00,,,0.00,WUHU216HW,2013-03-09 22:51:00,
2013-03-09 14:56:00,62.6,35.8,30.28,SW,225,2.9,3.6,37,0.00,,,0.00,WUHU216HW,2013-03-09 22:56:00,
2013-03-09 15:01:00,63.2,35.6,30.28,SW,225,3.1,4.3,36,0.00,,,0.00,WUHU216HW,2013-03-09 23:01:00,
2013-03-09 15:06:00,63.4,35.0,30.28,WSW,248,2.9,4.3,35,0.00,,,0.00,WUHU216HW,2013-03-09 23:06:00,
2013-03-09 15:11:00,62.5,34.9,30.28,WSW,248,3.4,4.0,36,0.00,,,0.00,WUHU216HW,2013-03-09 23:11:00,
2013-03-09 15:16:00,63.0,36.2,30.28,SW,225,2.0,4.0,37,0.00,,,0.00,WUHU216HW,2013-03-09 23:16:00,
2013-03-09 15:21:00,64.1,36.4,30.28,SW,225,3.1,5.1,36,0.00,,,0.00,WUHU216HW,2013-03-09 23:21:00,
2013-03-09 15:26:00,64.4,35.3,30.28,SSW,203,3.4,5.1,34,0.00,,,0.00,WUHU216HW,2013-03-09 23:26:00,
2013-03-09 15:31:00,65.3,37.5,30.28,South,180,4.0,4.9,36,0.00,,,0.00,WUHU216HW,2013-03-09 23:31:00,
2013-03-09 15:36:00,66.8,37.4,30.28,SW,225,3.4,4.0,34,0.00,,,0.00,WUHU216HW,2013-03-09 23:36:00,
2013-03-09 15:41:00,65.9,36.5,30.28,SW,225,1.6,3.4,34,0.00,,,0.00,WUHU216HW,2013-03-09 23:41:00,
2013-03-09 15:46:00,65.3,35.4,30.28,SSW,203,2.2,3.8,33,0.00,,,0.00,WUHU216HW,2013-03-09 23:46:00,
2013-03-09 15:51:00,65.5,35.6,30.28,South,180,2.2,4.0,33,0.00,,,0.00,WUHU216HW,2013-03-09 23:51:00,
2013-03-09 15:57:00,66.4,37.1,30.28,SW,225,1.6,4.7,34,0.00,,,0.00,WUHU216HW,2013-03-09 23:57:00,
2013-03-09 16:02:00,65.9,36.5,30.28,SSW,203,2.2,4.7,34,0.00,,,0.00,WUHU216HW,2013-03-10 00:02:00,
2013-03-09 16:07:00,66.6,37.2,30.28,SSE,158,1.8,4.0,34,0.00,,,0.00,WUHU216HW,2013-03-10 00:07:00,
2013-03-09 16:12:00,68.0,37.7,30.27,South,180,4.7,4.7,33,0.00,,,0.00,WUHU216HW,2013-03-10 00:12:00,
2013-03-09 16:17:00,68.6,37.5,30.27,South,180,1.8,4.7,32,0.00,,,0.00,WUHU216HW,2013-03-10 00:17:00,
2013-03-09 16:22:00,69.7,38.4,30.27,South,180,2.7,3.1,32,0.00,,,0.00,WUHU216HW,2013-03-10 00:22:00,
2013-03-09 16:27:00,70.2,36.4,30.27,SSE,158,3.4,6.3,29,0.00,,,0.00,WUHU216HW,2013-03-10 00:27:00,
2013-03-09 16:32:00,70.9,38.1,30.27,South,180,2.2,6.3,30,0.00,,,0.00,WUHU216HW,2013-03-10 00:32:00,
2013-03-09 16:37:00,70.9,37.0,30.27,SW,225,3.6,4.7,29,0.00,,,0.00,WUHU216HW,2013-03-10 00:37:00,
2013-03-09 16:42:00,70.7,36.9,30.28,SE,135,5.6,5.6,29,0.00,,,0.00,WUHU216HW,2013-03-10 00:42:00,
2013-03-09 16:47:00,71.6,36.6,30.28,SSW,203,3.4,5.6,28,0.00,,,0.00,WUHU216HW,2013-03-10 00:47:00,
2013-03-09 16:53:00,72.0,36.9,30.28,SSW,203,2.7,5.4,28,0.00,,,0.00,WUHU216HW,2013-03-10 00:53:00,
2013-03-09 16:58:00,71.6,37.7,30.28,SSE,158,3.4,3.8,29,0.00,,,0.00,WUHU216HW,2013-03-10 00:58:00,
2013-03-09 17:02:00,71.8,38.9,30.28,SSE,158,4.7,5.6,30,0.00,,,0.00,WUHU216HW,2013-03-10 01:02:00,
2013-03-09 17:08:00,72.4,40.1,30.28,SSE,158,5.4,5.6,31,0.00,,,0.00,WUHU216HW,2013-03-10 01:08:00,
2013-03-09 17:13:00,72.5,40.1,30.28,SSE,158,3.8,5.4,31,0.00,,,0.00,WUHU216HW,2013-03-10 01:13:00,
2013-03-09 17:18:00,72.0,39.7,30.28,South,180,4.9,5.1,31,0.00,,,0.00,WUHU216HW,2013-03-10 01:18:00,
2013-03-09 17:23:00,71.5,40.1,30.28,SE,135,5.1,5.1,32,0.00,,,0.00,WUHU216HW,2013-03-10 01:23:00,
2013-03-09 17:28:00,70.6,39.3,30.28,SSE,158,5.4,5.8,32,0.00,,,0.00,WUHU216HW,2013-03-10 01:28:00,
2013-03-09 17:33:00,69.5,38.3,30.27,SSE,158,2.9,6.9,32,0.00,,,0.00,WUHU216HW,2013-03-10 01:33:00,
2013-03-09 17:38:00,68.0,38.4,30.27,SSE,158,4.0,6.9,34,0.00,,,0.00,WUHU216HW,2013-03-10 01:38:00,
2013-03-09 17:43:00,66.6,37.2,30.28,SE,135,3.6,5.8,34,0.00,,,0.00,WUHU216HW,2013-03-10 01:43:00,
2013-03-09 17:48:00,65.2,35.9,30.28,ENE,68,2.7,5.1,34,0.00,,,0.00,WUHU216HW,2013-03-10 01:48:00,
2013-03-09 17:53:00,63.7,36.1,30.29,NE,45,4.5,4.9,36,0.00,,,0.00,WUHU216HW,2013-03-10 01:53:00,
2013-03-09 17:58:00,61.7,35.0,30.28,East,90,2.5,4.9,37,0.00,,,0.00,WUHU216HW,2013-03-10 01:58:00,
2013-03-09 18:03:00,60.8,35.6,30.28,SE,135,4.7,4.7,39,0.00,,,0.00,WUHU216HW,2013-03-10 02:03:00,
2013-03-09 18:08:00,59.0,34.7,30.29,ENE,68,6.7,6.7,40,0.00,,,0.00,WUHU216HW,2013-03-10 02:08:00,
2013-03-09 18:14:00,58.0,34.4,30.29,SE,135,3.6,6.7,41,0.00,,,0.00,WUHU216HW,2013-03-10 02:14:00,
2013-03-09 18:19:00,57.4,34.5,30.29,SE,135,2.9,6.3,42,0.00,,,0.00,WUHU216HW,2013-03-10 02:19:00,
2013-03-09 18:24:00,56.7,34.4,30.29,SSW,203,2.9,6.3,43,0.00,,,0.00,WUHU216HW,2013-03-10 02:24:00,
2013-03-09 18:29:00,56.2,34.4,30.29,ESE,113,5.4,5.4,44,0.00,,,0.00,WUHU216HW,2013-03-10 02:29:00,
2013-03-09 18:34:00,55.3,34.1,30.29,SE,135,2.9,5.4,45,0.00,,,0.00,WUHU216HW,2013-03-10 02:34:00,
2013-03-09 18:39:00,54.9,33.9,30.29,SSW,203,4.0,4.9,45,0.00,,,0.00,WUHU216HW,2013-03-10 02:39:00,
2013-03-09 18:44:00,54.5,34.0,30.29,ESE,113,4.5,4.7,46,0.00,,,0.00,WUHU216HW,2013-03-10 02:44:00,
2013-03-09 18:49:00,54.5,34.0,30.29,ENE,68,3.4,5.4,46,0.00,,,0.00,WUHU216HW,2013-03-10 02:49:00,
2013-03-09 18:54:00,54.4,33.8,30.30,ESE,113,6.3,7.6,46,0.00,,,0.00,WUHU216HW,2013-03-10 02:54:00,
2013-03-09 18:59:00,54.0,33.6,30.30,ENE,68,4.7,8.1,46,0.00,,,0.00,WUHU216HW,2013-03-10 02:59:00,
2013-03-09 19:04:00,53.6,33.2,30.30,South,180,3.6,8.1,46,0.00,,,0.00,WUHU216HW,2013-03-10 03:04:00,
2013-03-09 19:09:00,53.3,33.0,30.30,SE,135,4.5,6.3,46,0.00,,,0.00,WUHU216HW,2013-03-10 03:09:00,
2013-03-09 19:14:00,53.3,33.0,30.30,ENE,68,5.1,6.9,46,0.00,,,0.00,WUHU216HW,2013-03-10 03:14:00,
2013-03-09 19:19:00,53.3,33.0,30.30,ESE,113,3.1,6.9,46,0.00,,,0.00,WUHU216HW,2013-03-10 03:19:00,
2013-03-09 19:24:00,53.1,32.8,30.31,ENE,68,2.9,4.9,46,0.00,,,0.00,WUHU216HW,2013-03-10 03:24:00,
2013-03-09 19:30:00,53.1,32.8,30.31,North,0,2.7,4.9,46,0.00,,,0.00,WUHU216HW,2013-03-10 03:30:00,
2013-03-09 19:35:00,52.6,32.2,30.31,ENE,68,4.0,4.7,46,0.00,,,0.00,WUHU216HW,2013-03-10 03:35:00,
2013-03-09 19:40:00,52.2,32.0,30.31,East,90,1.8,4.3,46,0.00,,,0.00,WUHU216HW,2013-03-10 03:40:00,
2013-03-09 19:45:00,51.7,31.4,30.31,SE,135,3.1,4.7,46,0.00,,,0.00,WUHU216HW,2013-03-10 03:45:00,
2013-03-09 19:50:00,51.3,31.2,30.31,ESE,113,4.0,4.7,46,0.00,,,0.00,WUHU216HW,2013-03-10 03:50:00,
2013-03-09 19:55:00,51.3,31.7,30.31,ENE,68,1.8,5.1,47,0.00,,,0.00,WUHU216HW,2013-03-10 03:55:00,
2013-03-09 20:00:00,51.1,31.5,30.31,SSW,203,2.9,5.1,47,0.00,,,0.00,WUHU216HW,2013-03-10 04:00:00,
2013-03-09 20:05:00,51.1,31.5,30.31,East,90,1.8,4.5,47,0.00,,,0.00,WUHU216HW,2013-03-10 04:05:00,
2013-03-09 20:10:00,51.1,31.5,30.31,SE,135,4.7,4.7,47,0.00,,,0.00,WUHU216HW,2013-03-10 04:10:00,
2013-03-09 20:15:00,51.1,31.5,30.31,SE,135,5.4,5.4,47,0.00,,,0.00,WUHU216HW,2013-03-10 04:15:00,
2013-03-09 20:20:00,50.9,31.3,30.31,SE,135,3.6,5.4,47,0.00,,,0.00,WUHU216HW,2013-03-10 04:20:00,
2013-03-09 20:25:00,50.8,31.2,30.31,East,90,6.7,6.7,47,0.00,,,0.00,WUHU216HW,2013-03-10 04:25:00,
2013-03-09 20:30:00,50.2,30.7,30.31,South,180,4.5,7.2,47,0.00,,,0.00,WUHU216HW,2013-03-10 04:30:00,
2013-03-09 20:35:00,49.9,31.0,30.31,ESE,113,6.9,7.2,48,0.00,,,0.00,WUHU216HW,2013-03-10 04:35:00,
2013-03-09 20:41:00,49.5,31.2,30.31,SSE,158,3.4,6.9,49,0.00,,,0.00,WUHU216HW,2013-03-10 04:41:00,
2013-03-09 20:46:00,49.5,31.2,30.31,SE,135,4.3,6.9,49,0.00,,,0.00,WUHU216HW,2013-03-10 04:46:00,
2013-03-09 20:50:00,49.5,31.2,30.31,ESE,113,4.3,5.4,49,0.00,,,0.00,WUHU216HW,2013-03-10 04:50:00,
2013-03-09 20:55:00,49.7,31.3,30.32,East,90,3.1,5.1,49,0.00,,,0.00,WUHU216HW,2013-03-10 04:55:00,
2013-03-09 21:00:00,49.3,31.0,30.32,East,90,3.4,5.1,49,0.00,,,0.00,WUHU216HW,2013-03-10 05:00:00,
2013-03-09 21:06:00,49.1,31.3,30.32,SE,135,3.1,4.5,50,0.00,,,0.00,WUHU216HW,2013-03-10 05:06:00,
2013-03-09 21:11:00,49.0,31.1,30.33,East,90,3.6,4.5,50,0.00,,,0.00,WUHU216HW,2013-03-10 05:11:00,
2013-03-09 21:16:00,48.8,31.0,30.33,East,90,1.3,3.6,50,0.00,,,0.00,WUHU216HW,2013-03-10 05:16:00,
2013-03-09 21:21:00,48.8,31.0,30.33,NNE,23,1.1,2.9,50,0.00,,,0.00,WUHU216HW,2013-03-10 05:21:00,
2013-03-09 21:26:00,48.2,32.3,30.34,North,0,2.9,2.9,54,0.00,,,0.00,WUHU216HW,2013-03-10 05:26:00,
2013-03-09 21:31:00,47.9,32.0,30.34,North,0,1.8,2.9,54,0.00,,,0.00,WUHU216HW,2013-03-10 05:31:00,
2013-03-09 21:36:00,47.5,31.6,30.34,North,0,1.3,2.5,54,0.00,,,0.00,WUHU216HW,2013-03-10 05:36:00,
2013-03-09 21:41:00,47.7,31.8,30.34,ENE,68,1.3,2.7,54,0.00,,,0.00,WUHU216HW,2013-03-10 05:41:00,
2013-03-09 21:46:00,47.5,31.1,30.34,ENE,68,2.5,2.7,53,0.00,,,0.00,WUHU216HW,2013-03-10 05:46:00,
2013-03-09 21:51:00,47.2,30.8,30.34,NE,45,2.9,3.6,53,0.00,,,0.00,WUHU216HW,2013-03-10 05:51:00,
2013-03-09 21:56:00,46.3,30.4,30.34,ESE,113,2.0,3.6,54,0.00,,,0.00,WUHU216HW,2013-03-10 05:56:00,
2013-03-09 22:01:00,45.9,30.2,30.33,ENE,68,1.3,2.7,54,0.00,,,0.00,WUHU216HW,2013-03-10 06:01:00,
2013-03-09 22:06:00,45.4,30.1,30.33,ESE,113,1.6,3.6,55,0.00,,,0.00,WUHU216HW,2013-03-10 06:06:00,
2013-03-09 22:11:00,45.4,30.1,30.33,SE,135,3.1,3.6,55,0.00,,,0.00,WUHU216HW,2013-03-10 06:11:00,
2013-03-09 22:17:00,45.4,30.1,30.33,SE,135,3.4,3.4,55,0.00,,,0.00,WUHU216HW,2013-03-10 06:17:00,
2013-03-09 22:22:00,45.9,30.6,30.33,ESE,113,2.5,3.4,55,0.00,,,0.00,WUHU216HW,2013-03-10 06:22:00,
2013-03-09 22:27:00,46.1,30.7,30.33,SE,135,2.5,3.4,55,0.00,,,0.00,WUHU216HW,2013-03-10 06:27:00,
2013-03-09 22:32:00,46.4,31.1,30.33,SE,135,2.2,2.9,55,0.00,,,0.00,WUHU216HW,2013-03-10 06:32:00,
2013-03-09 22:37:00,46.4,30.6,30.33,ENE,68,1.8,2.9,54,0.00,,,0.00,WUHU216HW,2013-03-10 06:37:00,
2013-03-09 22:42:00,46.4,30.6,30.33,SE,135,1.8,2.5,54,0.00,,,0.00,WUHU216HW,2013-03-10 06:42:00,
2013-03-09 22:47:00,46.4,30.6,30.33,ESE,113,0.0,2.5,54,0.00,,,0.00,WUHU216HW,2013-03-10 06:47:00,
2013-03-09 22:52:00,46.3,30.4,30.33,ESE,113,0.9,1.1,54,0.00,,,0.00,WUHU216HW,2013-03-10 06:52:00,
2013-03-09 22:57:00,45.9,30.6,30.33,ESE,113,2.2,2.2,55,0.00,,,0.00,WUHU216HW,2013-03-10 06:57:00,
2013-03-09 23:02:00,45.5,30.2,30.33,NNE,23,0.4,2.2,55,0.00,,,0.00,WUHU216HW,2013-03-10 07:02:00,
2013-03-09 23:08:00,45.2,30.3,30.33,SW,225,1.1,1.1,56,0.00,,,0.00,WUHU216HW,2013-03-10 07:08:00,
2013-03-09 23:13:00,44.5,30.2,30.33,WSW,248,0.9,1.1,57,0.00,,,0.00,WUHU216HW,2013-03-10 07:13:00,
2013-03-09 23:18:00,43.9,30.1,30.33,North,0,0.0,0.9,58,0.00,,,0.00,WUHU216HW,2013-03-10 07:18:00,
2013-03-09 23:20:00,43.9,30.1,30.33,ENE,68,0.0,0.9,58,0.00,,,0.00,WUHU216HW,2013-03-10 07:20:00,
2013-03-09 23:26:00,43.6,30.2,30.33,WSW,248,0.0,0.9,59,0.00,,,0.00,WUHU216HW,2013-03-10 07:26:00,
2013-03-09 23:33:00,43.6,30.2,30.33,East,90,0.0,0.0,59,0.00,,,0.00,WUHU216HW,2013-03-10 07:33:00,
2013-03-09 23:39:00,43.2,29.8,30.33,WNW,293,0.0,0.0,59,0.00,,,0.00,WUHU216HW,2013-03-10 07:39:00,
2013-03-09 23:46:00,42.8,29.4,30.33,SW,225,1.1,1.1,59,0.00,,,0.00,WUHU216HW,2013-03-10 07:46:00,
2013-03-09 23:52:00,42.3,29.4,30.33,NE,45,1.3,1.3,60,0.00,,,0.00,WUHU216HW,2013-03-10 07:52:00,
2013-03-09 23:59:00,42.1,29.6,30.33,West,270,0.0,1.3,61,0.00,,,0.00,WUHU216HW,2013-03-10 07:59:00,